Rayong, Thailand

4:16 AM +07 on March 29, 2017 (GMT +0700)
U-Taphao International

Weather History for VTBU - October, 2012

Change the Weather History Date:

Tuesday, October 30, 2012

  Actual Average Record
Temperature  
Mean Temperature 84 °F -  
Max Temperature 91 °F 88 °F 95 °F (2003)
Min Temperature 77 °F 75 °F 71 °F (2007)
Cooling Degree Days 19    
Growing Degree Days 34 (Base 50)    
Moisture  
Dew Point 71 °F    
Average Humidity 66    
Maximum Humidity 79    
Minimum Humidity 46    
Precipitation  
Precipitation 0.00 in - - ()
Sea Level Pressure  
Sea Level Pressure 29.79 in    
Wind  
Wind Speed 3 mph ()    
Max Wind Speed 14 mph    
Max Gust Speed -    
Visibility 4.9 miles    
Events Rain , Thunderstorm    
Averages and records for this station are not official NWS values.
T = Trace of Precipitation, MM = Missing Value Source: Averaged Metar Reports

Daily Weather History Graph

Daily Weather History Graph

Search for Another Location

Airport or City:

Trip Planner

Search our weather history database for the weather conditions in past years. The results will help you decide how hot, cold, wet, or windy it might be!

Date:

Astronomy

Oct. 30, 2012 Rise Set
Actual Time 6:07 AM +07 5:48 PM +07
Civil Twilight 5:45 AM +07 6:10 PM +07
Nautical Twilight 5:20 AM +07 6:35 PM +07
Astronomical Twilight 4:55 AM +07 7:00 PM +07
Moon 6:08 PM +07 (10/30) 6:16 AM +07 (10/30)
Length of Visible Light 12h 25m
Length of Day
11h 41m
Full, 100% of the Moon is Illuminated
Oct 30
Full
Nov 7
Last Quarter
Nov 14
New
Nov 20
First Quarter
Nov 28
Full

Hourly Weather History & Observations

Time (+07) Temp. Heat Index Dew Point Humidity Pressure Visibility Wind Dir Wind Speed Gust Speed Precip Events Conditions
12:00 AM 82.4 °F 88.2 °F 73.4 °F 74% 29.80 in 5.6 mi NNE 3.5 mph - N/A Thunderstorm Thunderstorm
12:30 AM 82.4 °F 88.2 °F 73.4 °F 74% 29.80 in 5.0 mi NE 3.5 mph - N/A Thunderstorm Thunderstorm
1:00 AM 82.4 °F 88.2 °F 73.4 °F 74% 29.80 in 5.0 mi NE 3.5 mph - N/A Thunderstorm Thunderstorm
1:30 AM 82.4 °F 88.2 °F 73.4 °F 74% 29.80 in 5.0 mi East 3.5 mph - N/A Thunderstorm Thunderstorm
2:00 AM 78.8 °F - 71.6 °F 78% 29.77 in 4.3 mi South 4.6 mph - N/A Rain , Thunderstorm Light Thunderstorms and Rain
2:30 AM 80.6 °F 84.6 °F 71.6 °F 74% 29.77 in 4.3 mi Calm Calm - N/A Thunderstorm Thunderstorm
3:00 AM 80.6 °F 85.4 °F 73.4 °F 79% 29.77 in 4.3 mi Calm Calm - N/A   Mostly Cloudy
3:30 AM 80.6 °F 85.4 °F 73.4 °F 79% 29.77 in 4.3 mi Calm Calm - N/A   Mostly Cloudy
4:30 AM 80.6 °F 84.6 °F 71.6 °F 74% 29.77 in 4.3 mi Calm Calm - N/A   Mostly Cloudy
5:00 AM 78.8 °F - 71.6 °F 78% 29.77 in 4.3 mi Calm Calm - N/A   Mostly Cloudy
6:00 AM 78.8 °F - 71.6 °F 78% 29.77 in 3.7 mi Calm Calm - N/A   Mostly Cloudy
6:30 AM 78.8 °F - 71.6 °F 78% 29.77 in 3.7 mi Calm Calm - N/A   Mostly Cloudy
7:00 AM 80.6 °F 85.4 °F 73.4 °F 79% 29.80 in 3.7 mi Calm Calm - N/A   Mostly Cloudy
7:30 AM 82.4 °F 88.2 °F 73.4 °F 74% 29.80 in 4.3 mi Calm Calm - N/A   Mostly Cloudy
8:00 AM 84.2 °F 90.9 °F 73.4 °F 70% 29.80 in 4.3 mi Calm Calm - N/A   Mostly Cloudy
8:30 AM 86.0 °F 91.8 °F 71.6 °F 62% 29.83 in 5.0 mi Calm Calm - N/A   Mostly Cloudy
9:00 AM 87.8 °F 92.6 °F 69.8 °F 55% 29.83 in 5.0 mi WSW 3.5 mph - N/A   Mostly Cloudy
9:30 AM 89.6 °F 94.7 °F 69.8 °F 52% 29.86 in 5.6 mi WSW 3.5 mph - N/A   Mostly Cloudy
10:00 AM 89.6 °F 94.7 °F 69.8 °F 52% 29.86 in 5.6 mi WSW 3.5 mph - N/A   Mostly Cloudy
10:30 AM 89.6 °F 96.2 °F 71.6 °F 55% 29.86 in 5.6 mi SW 4.6 mph - N/A   Mostly Cloudy
11:00 AM 91.4 °F 98.4 °F 71.6 °F 52% 29.83 in 5.6 mi SW 6.9 mph - N/A   Mostly Cloudy
11:30 AM 91.4 °F 98.4 °F 71.6 °F 52% 29.83 in 5.6 mi SW 9.2 mph - N/A   Mostly Cloudy
12:00 PM 86.0 °F 95.1 °F 75.2 °F 70% 29.80 in 5.0 mi NNW 9.2 mph - N/A Rain Light Rain Showers
12:30 PM 87.8 °F 92.6 °F 69.8 °F 55% 29.80 in 5.6 mi NNW 5.8 mph - N/A   Mostly Cloudy
1:00 PM 89.6 °F 94.7 °F 69.8 °F 52% 29.77 in 6.2 mi NNW 3.5 mph - N/A   Mostly Cloudy
1:30 PM 91.4 °F 95.4 °F 68.0 °F 46% 29.77 in 6.2 mi NNW 5.8 mph - N/A   Mostly Cloudy
2:00 PM 91.4 °F 96.8 °F 69.8 °F 49% 29.74 in 6.2 mi West 6.9 mph - N/A   Mostly Cloudy
2:30 PM 91.4 °F 96.8 °F 69.8 °F 49% 29.71 in 6.2 mi West 8.1 mph - N/A   Mostly Cloudy
3:00 PM 91.4 °F 96.8 °F 69.8 °F 49% 29.71 in 6.2 mi West 6.9 mph - N/A   Mostly Cloudy
3:30 PM 89.6 °F 96.2 °F 71.6 °F 55% 29.71 in 5.6 mi West 9.2 mph - N/A   Mostly Cloudy
4:00 PM 89.6 °F 96.2 °F 71.6 °F 55% 29.71 in 5.6 mi WNW 6.9 mph - N/A   Mostly Cloudy
4:30 PM 89.6 °F 98.2 °F 73.4 °F 59% 29.71 in 5.6 mi WNW 4.6 mph - N/A   Mostly Cloudy
5:00 PM 89.6 °F 96.2 °F 71.6 °F 55% 29.71 in 5.6 mi West 6.9 mph - N/A   Mostly Cloudy
5:30 PM 87.8 °F 93.8 °F 71.6 °F 58% 29.71 in 5.0 mi West 6.9 mph - N/A   Mostly Cloudy
6:00 PM 86.0 °F 91.8 °F 71.6 °F 62% 29.74 in 5.0 mi West 4.6 mph - N/A Thunderstorm Thunderstorm
7:00 PM 78.8 °F - 68.0 °F 69% 29.80 in 4.3 mi East 13.8 mph - N/A Rain , Thunderstorm Light Thunderstorms and Rain
7:30 PM 77.0 °F - 68.0 °F 74% 29.80 in 4.3 mi Calm Calm - N/A Rain , Thunderstorm Light Thunderstorms and Rain
8:00 PM 78.8 °F - 69.8 °F 74% 29.80 in 4.3 mi Calm Calm - N/A Rain , Thunderstorm Light Thunderstorms and Rain
8:30 PM 77.0 °F - 69.8 °F 78% 29.80 in 4.3 mi Calm Calm - N/A Rain , Thunderstorm Light Thunderstorms and Rain
9:00 PM 77.0 °F - 69.8 °F 78% 29.83 in 4.3 mi Calm Calm - N/A Rain , Thunderstorm Light Thunderstorms and Rain
9:30 PM 77.0 °F - 69.8 °F 78% 29.83 in 4.3 mi Calm Calm - N/A Rain , Thunderstorm Light Thunderstorms and Rain
10:00 PM 78.8 °F - 69.8 °F 74% 29.83 in 4.3 mi Calm Calm - N/A Rain , Thunderstorm Light Thunderstorms and Rain
10:30 PM 78.8 °F - 69.8 °F 74% 29.83 in 4.3 mi Calm Calm - N/A Rain , Thunderstorm Light Thunderstorms and Rain
11:00 PM 78.8 °F - 69.8 °F 74% 29.83 in 4.3 mi Calm Calm - N/A Rain Light Rain
11:30 PM 78.8 °F - 69.8 °F 74% 29.83 in 4.3 mi Calm Calm - N/A Rain Light Rain